Tracking 31027 objects as of 19-Jul-2025
HD Live streaming from Space Station
objects crossing your sky now

THOR ABLESTAR DEB

Track THOR ABLESTAR DEB now!
10-day predictions


NORAD ID: 3164
Int'l Code: 1961-015HZ
Perigee: 846.8 km
Apogee: 929.6 km
Inclination: 66.7 °
Period: 102.6 minutes
Semi major axis: 7259 km
RCS: 0.0289 m2 (small)
Launch date: June 29, 1961
Source: United States (US)
Launch site: AIR FORCE EASTERN TEST RANGE (AFETR)

Note: This is SATELLITE DEBRIS
Your satellite tracking list
STARLINK-2062
Track 1 satellite(s)




NASA's NSSDC Master Catalog

Two Line Element Set (TLE):
1 03164U 61015HZ  25199.41378343  .00000631  00000-0  44555-3 0  9992
2 03164  66.7448 204.7108 0057043 280.6194  78.8469 14.03687676 40950
Source of the keplerian elements: AFSPC